{"data":{"norad_id":60358,"epoch":"2026-05-25T04:12:55.298592Z","epoch_age_seconds":56888,"freshness":"FRESH","line1":"1 60358U 24138D   26145.17564003  .00003869  00000+0  14273-3 0  9999","line2":"2 60358  53.1612 314.6449 0001250  93.0197 267.0947 15.30193795102337","mean_motion":15.30193795,"eccentricity":0.000125,"inclination_deg":53.1612,"raan_deg":314.6449,"arg_perigee_deg":93.0197,"mean_anomaly_deg":267.0947,"bstar":0.00014273,"rev_number":10233,"period_min":94.105727307566,"perigee_km":474.37692516891,"apogee_km":476.09026781803,"semimajor_km":6853.3705964935,"source":"CELESTRAK","updated_at":"2026-05-25T13:38:19.238132Z"}}